Regional Weather Roundup
Issued by NWS

Home | Current Version | Previous Version | Graphics & Text | Print | Product List | Glossary On
Versions: 1 2 3 4 5 6 7 8 9 10 11 12 13 14 15 16 17 18 19 20 21 22 23 24 25 26 27 28 29 30 31 32 33 34 35 36 37 38 39 40 41 42 43 44 45 46 47 48 49 50
000
ASUS43 KLMK 021102
RWRKY
KENTUCKY REGIONAL WEATHER ROUNDUP
NATIONAL WEATHER SERVICE LOUISVILLE KY
700 AM EDT MON MAY 02 2016

NOTE "FAIR" INDICATES FEW OR NO CLOUDS BELOW 12,000 FEET
WITH NO SIGNIFICANT WEATHER AND/OR OBSTRUCTIONS TO VISIBILITY.

KYZ001>023-026-027-061>063-070>075-021200-
WESTERN AND SOUTH CENTRAL KENTUCKY

CITY           SKY/WX    TMP DP  RH WIND       PRES   REMARKS
PADUCAH        PTCLDY    56  51  84 N7        30.02R
HENDERSON      MOCLDY    55  50  82 NW5       30.02R
OWENSBORO      PTCLDY    56  54  93 NW7       30.01S
HOPKINSVILLE   CLEAR     58  52  81 NW3       30.01R
BOWLING GREEN  CLOUDY    62  52  69 VRB3      29.99S
GLASGOW        NOT AVBL
$$

KYZ024-025-028>034-038-045-046-053-021200-
NORTH CENTRAL KENTUCKY

CITY           SKY/WX    TMP DP  RH WIND       PRES   REMARKS
LOUISVILLE/SDF MOCLDY    60  56  86 W7        29.98R
LOUISVILLE/LOU CLEAR     59  55  87 W6        29.98R
FORT KNOX      MOCLDY    56  55  95 W7        29.97R
$$

KYZ035>037-039>044-047>052-055>060-089>105-021200-
NORTHEAST KENTUCKY

CITY           SKY/WX    TMP DP  RH WIND       PRES   REMARKS
LEXINGTON      CLEAR     59  56  89 W3        29.97R
COVINGTON      CLOUDY    59  58  96 W8        29.94R
FRANKFORT      PTCLDY    58  55  90 W3        29.95S
$$

KYZ054-064>069-076>088-106>120-021200-
SOUTHEAST KENTUCKY

CITY           SKY/WX    TMP DP  RH WIND       PRES   REMARKS
JACKSON        CLOUDY    65  61  87 CALM      29.98R
LONDON         CLOUDY    65  60  84 SW6       30.00R
SOMERSET       NOT AVBL
MIDDLESBORO    MOCLDY    62  62 100 CALM      30.02R
MONTICELLO     CLOUDY    66  63  90 W10       30.01R
$$





USA.gov is the U.S. government's official web portal to all federal, state and local government web resources and services.